Location: Newark
(13.6797°N, 8.5297°E)
Time: 21:11:22
(UTC+00:00)

LightSail 2 - Pass Details

Date: 14 December 2019
Orbit: 704 x 719 km, 24.0° (Epoch: 27 January)

Event Time Altitude Azimuth Distance (km) Brightness Sun altitude
Rises 17:23:11 0° 287° (WNW) 3,107 9.3 -5.9°
Reaches altitude 10° 17:25:39 10° 284° (WNW) 2,184 8.6 -6.5°
Maximum altitude 17:30:46 65° 203° (SSW) 779 5.6 -7.7°
Drops below altitude 10° 17:35:51 10° 122° (ESE) 2,172 7.3 -8.8°
Sets 17:38:18 0° 119° (ESE) 3,087 8.1 -9.3°
